Location: Engomer
(42.9477°N, 1.0591°E)
Time: 13:29:37
(UTC+00:00)

Daily predictions for brighter satellites

Satellite Brightness Start Highest point End
(mag) Time Altitude Azimuth Time Altitude Azimuth Time Altitude Azimuth
NOSS 3-3 (A) 4.5 19:31:48 10° S 19:36:44 32° ESE 19:42:09 10° NE
NOSS 3-3 (C) 4.5 19:31:56 10° S 19:36:51 32° ESE 19:42:15 10° NE
Intercosmos 24 4.5 19:36:42 10° SSE 19:40:05 31° E 19:43:16 10° NNE
S3M 4.2 19:36:17 10° SSE 19:42:26 53° E 19:48:33 10° NNE
Helios 1A Rocket 3.7 19:39:59 10° S 19:44:02 55° W 19:48:08 10° NNW
Sich 1 3.6 19:41:15 10° N 19:45:22 40° ENE 19:49:29 10° SSE
OBJECT-B 0.8 19:42:33 10° SSE 19:45:46 87° E 19:49:02 10° N
IRS-1A Rocket 4.4 19:44:47 10° SSE 19:50:29 67° ENE 19:56:20 10° N
CZ-4 R/B 4.4 19:53:18 10° WSW 19:55:05 13° W 19:56:53 10° WNW
BREEZE M DEB (TANK) 4.2 19:48:45 10° WNW 19:55:44 35° NNW 19:58:29 10° ENE
Cosmos 1486 Rocket 4.3 19:52:12 10° SSW 19:57:32 78° WNW 20:02:54 10° NNE
Cosmos 2082 Rocket 4.3 19:56:28 10° NNE 19:59:14 14° NE 20:02:00 10° ENE
Cosmos 1553 Rocket 4.1 19:53:08 10° S 19:59:15 81° W 20:05:32 10° N
Cosmos 1151 Rocket 3.9 19:57:05 10° SSE 20:00:55 31° E 20:04:48 10° NNE
SPOT 3 Rocket 4.2 19:56:55 10° SE 20:01:42 40° ENE 20:06:30 10° N
X-37B 0.7 19:58:38 10° WNW 20:01:50 77° NNE 20:04:43 12° E
Cosmos 1437 Rocket 3.1 19:58:03 10° SSW 20:01:54 69° WNW 20:05:52 10° N
Cosmos 2084 3.7 20:01:05 10° SSW 20:04:59 43° ESE 20:08:59 10° NE
Resurs 01 Rocket 2.1 20:02:15 11° SE 20:06:18 45° ENE 20:10:33 10° N
USA 290 2.1 20:05:35 10° NNW 20:08:50 82° ENE 20:11:34 14° SSE
USA 186 3.8 20:07:10 10° SSW 20:09:05 19° W 20:10:56 10° NW
Meteor 1-20 Rocket 4.2 20:05:53 10° N 20:11:30 73° ENE 20:16:59 10° SSE
Cosmos 1933 3.2 20:08:29 10° S 20:12:31 78° E 20:16:33 10° N
Cosmos 2278 Rocket 2.9 20:18:20 10° SSE 20:23:18 33° ESE 20:28:17 10° NE
BREEZE-M DEB (TANK) 3.8 20:23:45 10° NW 20:25:32 18° N 20:27:06 10° NE
Cosmos 1782 2.8 20:22:17 10° S 20:26:12 58° E 20:30:08 10° NNE
Landsat 7 4.0 20:23:02 16° SSE 20:26:42 58° ENE 20:31:23 10° N
Cosmos 1602 3.7 20:22:58 10° N 20:26:50 64° E 20:29:33 18° SSE
GPS 2-04 Rocket1 3.9 20:24:07 10° SW 20:27:29 25° S 20:28:42 21° SE
Cosmos 1844 Rocket 4.1 20:22:22 10° SW 20:27:37 41° WNW 20:32:54 10° NNE
IGS 5A 3.5 20:24:31 17° SSE 20:27:39 65° ENE 20:31:46 10° N
Cosmos 1242 Rocket 2.7 20:25:14 10° SSW 20:28:47 70° W 20:32:20 10° N
Cosmos 1515 Rocket 4.5 20:29:37 21° SE 20:31:38 30° E 20:35:28 10° NNE
ERS-1 Rocket 4.3 20:30:20 16° ESE 20:32:55 24° ENE 20:36:53 10° NNE
BREEZE-M DEB (TANK) 3.3 20:24:57 10° WNW 20:33:50 72° SW 20:35:39 25° SE
CZ-4C R/B 3.3 20:30:36 10° NNW 20:37:45 59° NE 20:43:47 20° ESE
IRIS 4.3 20:38:15 10° W 20:40:33 40° S 20:40:56 37° SSE
Cosmos 1633 Rocket 3.0 20:36:15 10° N 20:40:40 80° E 20:43:38 21° SSE
USA 306 4.2 20:43:12 10° NW 20:47:04 33° NNE 20:49:58 16° E
ATLAS 5 CENTAUR R/B 2.7 20:41:23 10° NW 20:47:06 65° WSW 20:51:47 20° SSE
Cosmos 1328 Rocket 3.5 20:44:41 13° S 20:48:39 84° E 20:53:05 10° N
Cosmos 1812 3.0 20:47:18 31° SE 20:48:41 45° E 20:52:24 10° NNE
Cosmos 1777 Rocket 3.9 20:45:05 10° S 20:50:15 71° ESE 20:55:26 10° NNE
Cosmos 1470 Rocket 3.7 20:48:31 10° N 20:52:59 61° E 20:55:00 31° SSE
ARIANE 5 R/B 3.0 20:52:22 30° SE 20:54:05 47° ENE 20:58:15 10° N
Ariane Rocket 4.5 20:51:57 10° SSW 20:56:27 33° W 21:01:01 10° NNW
CRYOSAT 2 4.3 20:53:55 21° S 20:57:16 90° W 21:02:11 10° N
CARTOSAT-1 3.9 20:56:42 32° SE 20:58:16 48° ENE 21:02:25 10° N
Cosmos 1666 3.3 20:56:27 10° N 20:59:56 37° ENE 21:00:28 35° E
Cosmos 1833 Rocket 2.7 20:58:44 10° NNW 21:04:24 68° ENE 21:07:04 32° SE
BREEZE-M R/B 4.2 21:03:14 10° WNW 21:05:19 22° N 21:07:27 10° NE
Meteor 1-5 Rocket 4.1 21:00:37 10° N 21:05:59 66° ENE 21:08:22 33° SSE
Cosmos 1437 3.3 21:05:01 27° SW 21:06:12 46° WNW 21:08:57 10° N
Cosmos 1933 Rocket 3.7 21:02:56 10° N 21:07:13 55° E 21:08:26 40° SE
Meteor 1-10 Rocket 4.4 21:05:30 30° SSE 21:08:01 52° E 21:13:29 10° NNE
Cosmos 1536 4.4 21:07:16 10° NNE 21:10:22 21° ENE 21:10:33 21° ENE
Cosmos 1709 Rocket 4.5 21:05:13 10° NNW 21:11:11 56° W 21:16:16 14° SSW
USA 307 3.8 21:09:45 10° NW 21:13:50 43° NNE 21:15:38 28° E
Cosmos 2184 Rocket 4.1 21:08:46 10° N 21:14:54 58° E 21:17:33 33° SE
CZ-2C R/B 4.3 21:11:59 10° N 21:16:23 56° WNW 21:20:46 10° SSW
H-2A R/B 4.3 21:14:44 10° NNE 21:18:18 34° E 21:18:18 34° E
Cosmos 2074 Rocket 4.1 21:13:10 10° N 21:19:27 65° E 21:22:14 34° SSE
NOSS 3-4 (A) 4.2 21:13:04 10° NNW 21:19:57 57° NE 21:24:06 28° ESE
NOSS 3-4 (C) 4.2 21:13:11 10° NNW 21:20:03 57° NE 21:24:12 28° ESE
USA 245 3.8 21:20:53 31° NW 21:20:53 31° NW 21:22:21 10° NNW
JB-3 4.1 21:17:13 10° NNE 21:21:06 83° ESE 21:21:59 52° S
SJ 16-02 1.2 21:19:30 37° S 21:21:13 77° ESE 21:25:39 10° NNE
Nadezhda 1 Rocket 4.4 21:19:52 34° SE 21:22:04 47° E 21:28:01 10° NNE
SPOT 1/Viking Rocket 4.0 21:23:33 26° S 21:26:20 57° W 21:31:28 10° NNW
USA 308 3.4 21:23:18 10° NW 21:27:31 52° NNE 21:28:43 38° E
Cosmos 1500 4.2 21:26:18 10° NNW 21:29:50 40° W 21:30:59 31° SW
ATLAS 2AS CENTAUR R/B 3.5 21:26:19 10° NNW 21:33:20 43° NE 21:37:04 24° E
Iridium 4 Rocket 3.7 21:30:58 33° S 21:33:41 90° E 21:39:38 10° N
Terra 2.0 21:33:01 48° ESE 21:33:59 58° ENE 21:38:40 10° N
CREW DRAGON DEMO-1 DEB 4.4 21:34:18 10° NW 21:35:56 30° NNW 21:35:56 30° NNW
X-37B 2.7 21:35:30 10° W 21:36:59 21° WSW 21:36:59 21° WSW
SPOT 5 2.9 21:38:33 48° S 21:40:03 87° WSW 21:45:21 10° NNW
Resurs 01 Rocket 4.0 21:40:00 10° SW 21:43:00 18° W 21:46:01 10° NW
Cosmos 2082 Rocket 2.2 21:38:44 10° NNW 21:44:21 73° ENE 21:45:50 50° SE
Cosmos 158 Rocket 3.7 21:41:06 10° NNW 21:46:01 81° ENE 21:46:51 61° SE
Cosmos 2228 Rocket 2.9 21:45:35 70° SSE 21:46:03 82° E 21:50:31 10° N
COSMOS 2406 3.7 21:45:21 10° NW 21:50:50 52° WSW 21:52:38 38° SSW
Cosmos 1271 Rocket 3.5 21:54:20 44° WSW 21:55:05 51° WNW 21:59:00 10° N
Meteor 1-27 Rocket 3.7 21:58:45 48° S 22:00:32 89° E 22:06:29 10° N
Cosmos 2341 Rocket 4.4 21:56:37 10° N 22:02:48 48° ENE 22:04:08 42° ESE
Cosmos 2278 Rocket 3.5 22:02:02 10° SW 22:07:17 38° WNW 22:12:34 10° N
USA 305 3.1 22:03:40 10° NW 22:07:27 67° W 22:07:27 67° W
Cosmos 1937 Rocket 3.9 22:09:31 46° E 22:09:31 46° E 22:13:54 10° NNE
Cosmos 1295 Rocket 4.4 22:03:29 10° N 22:09:53 88° E 22:11:29 54° S
Milstar 3 4.1 22:00:07 10° WSW 22:10:46 33° S 22:10:46 33° S
ERS-1 Rocket 3.7 22:10:19 37° SW 22:11:27 43° W 22:16:14 10° NNW
SL-24 R/B - RUBIN 2 4.4 22:07:07 10° NNW 22:12:25 50° NE 22:13:07 46° ENE
Cosmos 1943 Rocket 2.5 22:13:55 47° E 22:13:55 47° E 22:18:50 10° NE
Cosmos 1680 Rocket 3.4 22:09:01 10° NNW 22:14:22 78° ENE 22:14:52 71° ESE
Cosmos 2369 Rocket 3.6 22:17:10 24° E 22:17:10 24° E 22:20:23 10° NE
Cosmos 1869 Rocket 3.8 22:11:52 10° NNW 22:16:04 61° W 22:16:04 61° W
Centaur D AC-29 4.2 21:03:02 10° WSW 22:17:55 36° S 22:20:13 35° S
Cosmos 1238 Rocket 3.9 22:18:49 10° N 22:24:50 56° ENE 22:25:13 55° E
CZ-4C R/B 3.9 22:19:25 10° NW 22:26:20 39° WSW 22:28:58 31° SSW
USA 306 3.9 22:23:02 10° WNW 22:26:02 40° W 22:26:02 40° W
Meteor 1-11 Rocket 4.5 22:23:12 10° NNW 22:28:53 47° W 22:30:24 39° SW
Cosmos 1340 Rocket 3.5 22:27:47 10° NNW 22:31:03 54° NW 22:31:03 54° NW
Cosmos 1707 Rocket 3.8 22:32:59 65° NNW 22:32:59 65° NNW 22:36:53 10° N
Cosmos 1818 4.0 22:28:05 10° NNW 22:33:28 51° NE 22:34:12 48° ENE
DNEPR-1 R/B 4.0 22:34:46 78° SE 22:34:52 79° ESE 22:40:00 10° NE
ALOS 2 4.0 22:41:06 29° NE 22:41:06 29° NE 22:44:26 10° N
SL-8 Rocket 3.9 22:34:24 10° N 22:40:45 73° E 22:41:32 65° SE
Meteor 2-4 Rocket 4.4 22:47:05 43° E 22:47:05 43° E 22:52:02 10° NNE
Cosmos 1536 4.5 22:43:17 10° NNW 22:46:16 28° WNW 22:46:16 28° WNW
Cosmos 1898 Rocket 4.0 22:47:28 48° WSW 22:48:25 56° WNW 22:53:40 10° NNE
Cosmos 1743 4.2 22:46:57 10° NNW 22:49:32 35° NW 22:49:32 35° NW
SJ 16-02 4.2 22:58:33 10° W 23:00:22 12° NW 23:02:12 10° NNW
Cosmos 1975 4.2 22:57:56 10° N 23:00:28 37° N 23:00:28 37° N
RESURS DK-1 4.3 23:00:24 10° N 23:03:31 23° NE 23:03:31 23° NE
Cosmos 1733 Rocket 4.0 23:01:40 10° NNW 23:04:54 43° NW 23:04:54 43° NW
Cosmos 1461 3.9 23:07:22 50° NNE 23:07:22 50° NNE 23:10:48 10° NNE
Cosmos 2297 4.4 23:04:38 40° WSW 23:06:09 50° WNW 23:11:41 10° NNE
Cosmos 372 Rocket 4.1 23:07:02 68° NNE 23:07:02 68° NNE 23:11:29 10° NNE
Cosmos 864 Rocket 4.3 23:01:56 10° N 23:08:08 89° WSW 23:08:29 80° S
SeaSat 1 4.3 23:06:33 10° NE 23:08:32 19° ENE 23:08:32 19° ENE
Cosmos 1959 Rocket 4.3 23:04:38 10° N 23:10:53 82° W 23:11:16 77° SSW
Terra 4.0 23:11:54 16° W 23:12:06 16° W 23:14:56 10° NW
Meteor 1-18 Rocket 4.3 23:16:27 69° W 23:16:36 69° WNW 23:22:12 10° N
USA 215 4.2 23:13:57 13° E 23:19:24 44° NNE 23:25:32 10° NW
Cosmos 1908 Rocket 4.4 23:16:21 10° N 23:19:43 49° N 23:19:43 49° N
ATLAS 2AS CENTAUR R/B 3.1 23:17:32 10° NW 23:24:22 47° WSW 23:24:29 47° WSW
Cosmos 1867 4.0 23:25:56 52° ENE 23:25:56 52° ENE 23:30:14 10° NE
Cosmos 1125 Rocket 4.5 23:26:49 37° ENE 23:26:49 37° ENE 23:30:32 10° NNE
Nimbus 7 Rocket 4.4 23:20:57 10° NNE 23:26:37 65° E 23:26:37 65° E
Cosmos 2082 Rocket 4.2 23:24:28 10° WNW 23:27:41 16° W 23:27:41 16° W
Cosmos 2181 Rocket 4.5 23:29:26 46° WSW 23:30:20 49° WNW 23:36:17 10° N
ATLAS CENTAUR R/B 3.7 23:38:29 15° NE 23:38:29 15° NE 23:39:15 10° NE
Cosmos 2366 rocket 4.4 23:34:22 10° NNW 23:40:17 48° W 23:40:37 48° W
Cosmos 1821 Rocket 3.9 23:34:36 10° N 23:41:02 77° E 23:41:25 74° ESE
Lacrosse 5 3.9 23:54:52 18° E 23:54:52 18° E 23:56:32 10° ENE
